This is the latest recevied weather packets stored in our database for station/object N2MLB-WX. If no packets are shown the sender has not sent any weather packets the latest 10 day(s).
| Time | Temp. | Humidity | Pressure | Rain* | Wind** | Luminosity | Snow |
|---|---|---|---|---|---|---|---|
| 1777740141 | 8.89° C | 50% | 1011 hPa | 0 mm | - | 60 W/m² | - |
| 1777739840 | 8.33° C | 51% | 1011 hPa | 0 mm | - | 71 W/m² | - |
| 1777739541 | 9.44° C | 41% | 1011 hPa | 0 mm | - | 84 W/m² | - |
| 1777739240 | 10.56° C | 47% | 1011 hPa | 0 mm | - | 111 W/m² | - |
| 1777738943 | 10.56° C | 43% | 1011 hPa | 0 mm | - | 199 W/m² | - |
| 1777738640 | 9.44° C | 48% | 1011 hPa | 0 mm | - | 199 W/m² | - |
| 1777738339 | 9.44° C | 49% | 1011 hPa | 0 mm | - | 196 W/m² | - |
| 1777738040 | 10° C | 52% | 1011 hPa | 0 mm | - | 163 W/m² | - |
| 1777737740 | 8.33° C | 49% | 1011 hPa | 0 mm | - | 162 W/m² | - |
| 1777737439 | 9.44° C | 53% | 1011 hPa | 0 mm | - | 157 W/m² | - |
| 1777737140 | 10° C | 50% | 1011 hPa | 0 mm | - | 155 W/m² | - |
| 1777736839 | 10.56° C | 51% | 1011 hPa | 0 mm | - | 153 W/m² | - |
| 1777736539 | 10° C | 51% | 1011 hPa | 0 mm | - | 150 W/m² | - |
| 1777736240 | 9.44° C | 52% | 1011 hPa | 0 mm | - | 149 W/m² | - |
| 1777735940 | 9.44° C | 57% | 1011 hPa | 0 mm | - | 146 W/m² | - |
| 1777735639 | 9.44° C | 54% | 1011 hPa | 0 mm | - | 143 W/m² | - |
| 1777735340 | 8.33° C | 53% | 1011 hPa | 0 mm | - | 141 W/m² | - |
| 1777735040 | 8.33° C | 53% | 1011 hPa | 0 mm | - | 138 W/m² | - |
| 1777734740 | 8.89° C | 53% | 1011 hPa | 0 mm | - | 136 W/m² | - |
| 1777734441 | 9.44° C | 54% | 1011 hPa | 0 mm | - | 134 W/m² | - |
| 1777734139 | 8.33° C | 55% | 1011 hPa | 0 mm | - | 134 W/m² | - |
| 1777733839 | 8.33° C | 56% | 1011 hPa | 0 mm | - | 129 W/m² | - |
| 1777733540 | 8.33° C | 53% | 1011 hPa | 0 mm | - | 126 W/m² | - |
| 1777733240 | 8.33° C | 51% | 1011 hPa | 0 mm | - | 122 W/m² | - |
| 1777732940 | 8.33° C | 55% | 1011 hPa | 0 mm | - | 67 W/m² | - |
* Rain latest hour (hover to see other rain measurements)
** Current wind speed in m/s (hover to see current wind gust speed)